| time (UTC) | temp F | wind direction | speed knots | gust knots | rain 1hr in | rain 24hr in | rain mn in | humidity % | barometer mb |
| 20260506013324 | 49 | 334 | 0.9 | 2.6 | 0.00 | 0.00 | 0.00 | 84 | 1009.2 |
| 20260506012331 | 49 | 8 | 0.9 | 7.0 | 0.00 | 0.00 | 0.00 | 83 | 1009.2 |
| 20260506011348 | 49 | 3 | 0.9 | 7.0 | 0.00 | 0.00 | 0.00 | 83 | 1009.3 |
| 20260506010321 | 49 | 332 | 0.9 | 7.0 | 0.00 | 0.00 | 0.00 | 83 | 1009.4 |
| 20260506005334 | 49 | 7 | 1.7 | 4.3 | 0.00 | 0.00 | 0.00 | 83 | 1009.4 |
| 20260506004322 | 49 | 327 | 0.9 | 6.1 | 0.00 | 0.00 | 0.00 | 82 | 1009.7 |
| 20260506003343 | 49 | 340 | 1.7 | 6.1 | 0.00 | 0.00 | 0.00 | 82 | 1009.7 |
| 20260506002341 | 49 | 358 | 0.9 | 5.2 | 0.00 | 0.00 | 0.00 | 82 | 1009.8 |
| 20260506001353 | 49 | 337 | 1.7 | 6.1 | 0.00 | 0.00 | 0.00 | 82 | 1009.8 |
| 20260506000338 | 49 | 44 | 0.9 | 2.6 | 0.00 | 0.00 | 0.00 | 82 | 1009.9 |
| 20260505235322 | 49 | 22 | 0.9 | 2.6 | 0.00 | 0.00 | 0.00 | 82 | 1009.9 |
| 20260505234321 | 49 | 344 | 0.0 | 4.3 | 0.00 | 0.00 | 0.00 | 82 | 1010.0 |
| 20260505233332 | 49 | 11 | 0.9 | 2.6 | 0.00 | 0.00 | 0.00 | 81 | 1010.0 |
| 20260505232325 | 49 | 347 | 0.9 | 4.3 | 0.00 | 0.00 | 0.00 | 81 | 1010.0 |
| 20260505231336 | 49 | 22 | 0.9 | 3.5 | 0.00 | 0.00 | 0.00 | 80 | 1010.1 |
| 20260505230325 | 49 | 344 | 0.9 | 4.3 | 0.00 | 0.00 | 0.00 | 80 | 1010.1 |
| 20260505225339 | 49 | 5 | 2.6 | 7.8 | 0.00 | 0.00 | 0.00 | 80 | 1010.2 |
| 20260505224323 | 49 | 14 | 0.9 | 2.6 | 0.00 | 0.00 | 0.00 | 79 | 1010.3 |
| 20260505223319 | 49 | 11 | 0.9 | 3.5 | 0.00 | 0.00 | 0.00 | 79 | 1010.3 |
| 20260505222336 | 50 | 350 | 0.0 | 4.3 | 0.00 | 0.00 | 0.00 | 79 | 1010.3 |
| 20260505221339 | 50 | 358 | 0.9 | 5.2 | 0.00 | 0.00 | 0.00 | 79 | 1010.3 |
| 20260505220406 | 50 | 350 | 1.7 | 7.0 | 0.00 | 0.00 | 0.00 | 78 | 1010.3 |
| 20260505215331 | 50 | 347 | 2.6 | 7.8 | 0.00 | 0.00 | 0.00 | 78 | 1010.4 |
| 20260505214320 | 50 | 355 | 1.7 | 7.0 | 0.00 | 0.00 | 0.00 | 78 | 1010.4 |
| 20260505213336 | 50 | 9 | 2.6 | 6.1 | 0.00 | 0.00 | 0.00 | 79 | 1010.5 |
| 20260505212327 | 51 | 334 | 1.7 | 7.0 | 0.00 | 0.00 | 0.00 | 79 | 1010.5 |
| 20260505211323 | 51 | 15 | 1.7 | 4.3 | 0.00 | 0.00 | 0.00 | 79 | 1010.6 |
| 20260505210328 | 51 | 27 | 2.6 | 7.0 | 0.00 | 0.00 | 0.00 | 79 | 1010.6 |
| 20260505205338 | 51 | 328 | 2.6 | 6.1 | 0.00 | 0.00 | 0.00 | 79 | 1010.7 |
| 20260505204337 | 52 | 324 | 1.7 | 4.3 | 0.00 | 0.00 | 0.00 | 79 | 1010.7 |
| 20260505203350 | 52 | 342 | 2.6 | 7.0 | 0.00 | 0.00 | 0.00 | 78 | 1010.7 |
| 20260505202409 | 52 | 356 | 1.7 | 6.1 | 0.00 | 0.00 | 0.00 | 78 | 1010.7 |
| 20260505201350 | 52 | 358 | 1.7 | 7.8 | 0.00 | 0.00 | 0.00 | 78 | 1010.7 |
| 20260505200348 | 53 | 334 | 1.7 | 6.1 | 0.00 | 0.00 | 0.00 | 77 | 1010.7 |
| 20260505195326 | 53 | 1 | 1.7 | 5.2 | 0.00 | 0.00 | 0.00 | 76 | 1010.6 |
| 20260505194337 | 53 | 12 | 0.9 | 5.2 | 0.00 | 0.00 | 0.00 | 76 | 1010.5 |
| 20260505193331 | 53 | 29 | 0.9 | 9.6 | 0.00 | 0.00 | 0.00 | 75 | 1010.4 |
| 20260505192343 | 53 | 248 | 2.6 | 7.8 | 0.00 | 0.00 | 0.00 | 75 | 1010.3 |
| 20260505191354 | 54 | 55 | 1.7 | 8.7 | 0.00 | 0.00 | 0.00 | 75 | 1010.1 |
| 20260505190340 | 54 | 352 | 2.6 | 7.0 | 0.00 | 0.00 | 0.00 | 74 | 1010.0 |
| 20260505185348 | 54 | 276 | 1.7 | 7.8 | 0.00 | 0.00 | 0.00 | 73 | 1009.9 |
| 20260505184329 | 55 | 281 | 1.7 | 7.8 | 0.00 | 0.00 | 0.00 | 72 | 1009.9 |
| 20260505183326 | 55 | 2 | 2.6 | 7.8 | 0.00 | 0.00 | 0.00 | 72 | 1009.7 |
| 20260505182326 | 56 | 340 | 2.6 | 7.8 | 0.00 | 0.00 | 0.00 | 71 | 1009.7 |
| 20260505181334 | 56 | 36 | 2.6 | 7.8 | 0.00 | 0.00 | 0.00 | 71 | 1009.7 |
| 20260505180336 | 56 | 332 | 3.5 | 8.7 | 0.00 | 0.00 | 0.00 | 70 | 1009.7 |
| 20260505175349 | 56 | 70 | 3.5 | 7.8 | 0.00 | 0.00 | 0.00 | 70 | 1009.5 |
| 20260505174332 | 56 | 51 | 2.6 | 8.7 | 0.00 | 0.00 | 0.00 | 70 | 1009.6 |
| 20260505173323 | 57 | 336 | 2.6 | 8.7 | 0.00 | 0.00 | 0.00 | 70 | 1009.7 |
| 20260505172352 | 57 | 57 | 1.7 | 7.0 | 0.00 | 0.00 | 0.00 | 70 | 1009.7 |
| 20260505171331 | 57 | 56 | 3.5 | 7.0 | 0.00 | 0.00 | 0.00 | 69 | 1009.7 |
| 20260505170327 | 57 | 343 | 4.3 | 10.4 | 0.00 | 0.00 | 0.00 | 68 | 1009.8 |
| 20260505165323 | 58 | 353 | 2.6 | 6.1 | 0.00 | 0.35 | 0.00 | 68 | 1009.9 |
| 20260505164353 | 58 | 25 | 1.7 | 12.2 | 0.00 | 0.35 | 0.00 | 68 | 1009.9 |
| 20260505163329 | 59 | 346 | 2.6 | 6.1 | 0.00 | 0.35 | 0.00 | 67 | 1009.8 |
| 20260505162321 | 59 | 331 | 1.7 | 7.8 | 0.00 | 0.35 | 0.00 | 67 | 1009.9 |
| 20260505161335 | 59 | 5 | 2.6 | 7.0 | 0.00 | 0.35 | 0.00 | 66 | 1010.0 |
| 20260505160325 | 58 | 5 | 2.6 | 8.7 | 0.00 | 0.35 | 0.00 | 67 | 1010.0 |
| 20260505153347 | 61 | 290 | 2.6 | 7.0 | 0.00 | 0.67 | 0.00 | 65 | 1009.9 |
| 20260505152351 | 59 | 47 | 1.7 | 6.1 | 0.00 | 0.67 | 0.00 | 67 | 1010.1 |
| 20260505151346 | 59 | 296 | 1.7 | 6.1 | 0.00 | 0.67 | 0.00 | 68 | 1010.1 |
| 20260505150320 | 59 | 350 | 1.7 | 4.3 | 0.00 | 0.67 | 0.00 | 66 | 1010.1 |
| 20260505140325 | 60 | 358 | 1.7 | 7.0 | 0.00 | 0.71 | 0.00 | 68 | 1010.3 |
| 20260505124323 | 61 | 96 | 0.9 | 6.1 | 0.00 | 0.71 | 0.00 | 68 | 1010.7 |
| 20260505123320 | 61 | 29 | 1.7 | 7.0 | 0.00 | 0.71 | 0.00 | 69 | 1010.7 |
| 20260505122339 | 60 | 46 | 1.7 | 7.0 | 0.00 | 0.71 | 0.00 | 70 | 1010.9 |
| 20260505121337 | 61 | 102 | 7.0 | 15.6 | 0.00 | 0.71 | 0.00 | 71 | 1010.8 |
| 20260505115324 | 60 | 71 | 7.0 | 14.8 | 0.00 | 0.71 | 0.00 | 72 | 1010.7 |
| 20260505114320 | 59 | 345 | 2.6 | 7.0 | 0.00 | 0.71 | 0.00 | 74 | 1011.0 |
| 20260505113327 | 59 | 335 | 2.6 | 7.0 | 0.00 | 0.71 | 0.00 | 74 | 1010.9 |
| 20260505112321 | 59 | 127 | 1.7 | 8.7 | 0.00 | 0.71 | 0.00 | 72 | 1011.0 |
| 20260505111328 | 60 | 19 | 1.7 | 7.0 | 0.00 | 0.71 | 0.00 | 73 | 1011.1 |
| 20260505110335 | 59 | 302 | 3.5 | 7.8 | 0.00 | 0.71 | 0.00 | 73 | 1011.1 |
| 20260505101335 | 57 | 68 | 5.2 | 11.3 | 0.00 | 0.71 | 0.00 | 78 | 1011.6 |
| 20260505100323 | 57 | 79 | 5.2 | 13.0 | 0.00 | 0.71 | 0.00 | 83 | 1011.7 |
| 20260505095325 | 54 | 360 | 1.7 | 7.8 | 0.00 | 0.71 | 0.00 | 87 | 1011.8 |
| 20260505094319 | 52 | 17 | 1.7 | 5.2 | 0.00 | 0.71 | 0.00 | 89 | 1011.8 |
| 20260505093324 | 52 | 18 | 1.7 | 7.0 | 0.00 | 0.71 | 0.00 | 89 | 1011.9 |
| 20260505092345 | 52 | 156 | 0.9 | 6.1 | 0.00 | 0.71 | 0.00 | 90 | 1011.9 |
| 20260505091320 | 51 | 360 | 1.7 | 4.3 | 0.00 | 0.71 | 0.00 | 90 | 1012.0 |
| 20260505090357 | 51 | 17 | 0.9 | 7.8 | 0.00 | 0.71 | 0.00 | 90 | 1012.0 |
| 20260505085335 | 51 | 64 | 1.7 | 7.8 | 0.00 | 0.71 | 0.00 | 91 | 1012.0 |
| 20260505084326 | 51 | 15 | 2.6 | 7.8 | 0.00 | 0.71 | 0.00 | 91 | 1011.9 |
| 20260505083320 | 51 | 354 | 1.7 | 6.1 | 0.00 | 0.71 | 0.00 | 91 | 1011.9 |
| 20260505082328 | 51 | 83 | 1.7 | 6.1 | 0.00 | 0.71 | 0.00 | 91 | 1011.9 |
| 20260505081339 | 51 | 21 | 0.9 | 6.1 | 0.00 | 0.71 | 0.00 | 91 | 1011.8 |
| 20260505080328 | 51 | 316 | 1.7 | 7.8 | 0.00 | 0.71 | 0.00 | 91 | 1011.8 |
| 20260505075337 | 51 | 31 | 1.7 | 4.3 | 0.00 | 0.71 | 0.00 | 92 | 1011.7 |
| 20260505074328 | 51 | 15 | 1.7 | 8.7 | 0.00 | 0.71 | 0.00 | 92 | 1011.8 |
| 20260505073345 | 51 | 17 | 1.7 | 4.3 | 0.00 | 0.71 | 0.00 | 92 | 1011.8 |
| 20260505072322 | 51 | 14 | 0.9 | 6.1 | 0.00 | 0.71 | 0.00 | 91 | 1011.7 |
| 20260505071319 | 51 | 39 | 0.9 | 5.2 | 0.00 | 0.71 | 0.00 | 91 | 1011.8 |
| 20260505070348 | 51 | 20 | 1.7 | 6.1 | 0.00 | 0.71 | 0.00 | 91 | 1011.8 |
| 20260505065324 | 51 | 340 | 1.7 | 7.0 | 0.00 | 0.71 | 0.00 | 91 | 1011.9 |
| 20260505064326 | 51 | 83 | 0.9 | 3.5 | 0.00 | 0.71 | 0.00 | 91 | 1012.0 |
| 20260505063345 | 51 | 288 | 2.6 | 7.0 | 0.00 | 0.71 | 0.00 | 91 | 1012.0 |
| 20260505062400 | 51 | 358 | 1.7 | 7.0 | 0.00 | 0.71 | 0.00 | 91 | 1012.0 |
| 20260505061321 | 51 | 360 | 0.9 | 5.2 | 0.00 | 0.71 | 0.00 | 91 | 1012.1 |
| 20260505060345 | 51 | 17 | 0.9 | 6.1 | 0.00 | 0.71 | 0.00 | 90 | 1012.2 |
| 20260505055333 | 51 | 27 | 1.7 | 4.3 | 0.00 | 0.71 | 0.00 | 90 | 1012.3 |
| 20260505054325 | 51 | 5 | 0.9 | 4.3 | 0.00 | 0.71 | 0.00 | 90 | 1012.2 |
| 20260505053336 | 51 | 345 | 1.7 | 5.2 | 0.00 | 0.71 | 0.00 | 90 | 1012.2 |
| 20260505052326 | 51 | 10 | 0.0 | 4.3 | 0.00 | 0.71 | 0.00 | 90 | 1012.2 |
| 20260505051331 | 51 | 347 | 0.9 | 3.5 | 0.00 | 0.71 | 0.00 | 90 | 1012.1 |
| 20260505050340 | 51 | 13 | 1.7 | 6.1 | 0.00 | 0.71 | 0.00 | 90 | 1012.0 |
| 20260505041332 | 50 | 10 | 1.7 | 6.1 | 0.00 | 0.71 | 0.00 | 89 | 1011.9 |
| 20260505040336 | 50 | 203 | 0.9 | 3.5 | 0.00 | 0.71 | 0.00 | 89 | 1011.9 |
| 20260505035355 | 50 | 9 | 1.7 | 7.0 | 0.00 | 0.71 | 0.00 | 89 | 1011.9 |
| 20260505034402 | 50 | 22 | 1.7 | 6.1 | 0.00 | 0.71 | 0.00 | 89 | 1011.9 |
| 20260505033323 | 50 | 324 | 1.7 | 7.0 | 0.00 | 0.71 | 0.00 | 89 | 1012.0 |
| 20260505032323 | 50 | 340 | 2.6 | 8.7 | 0.00 | 0.71 | 0.00 | 89 | 1012.1 |
| 20260505031339 | 51 | 58 | 1.7 | 10.4 | 0.00 | 0.71 | 0.00 | 89 | 1012.1 |
| 20260505030334 | 51 | 19 | 1.7 | 6.1 | 0.00 | 0.71 | 0.00 | 89 | 1012.2 |
| 20260505025323 | 51 | 350 | 2.6 | 5.2 | 0.00 | 0.71 | 0.00 | 89 | 1012.1 |
| 20260505024334 | 51 | 344 | 2.6 | 5.2 | 0.00 | 0.71 | 0.00 | 89 | 1012.1 |
| 20260505023346 | 51 | 13 | 2.6 | 7.0 | 0.00 | 0.71 | 0.00 | 89 | 1012.1 |
| 20260505022355 | 51 | 1 | 1.7 | 7.0 | 0.00 | 0.71 | 0.00 | 89 | 1012.1 |
| 20260505021338 | 51 | 42 | 2.6 | 6.1 | 0.00 | 0.71 | 0.00 | 89 | 1012.1 |
| 20260505020328 | 52 | 21 | 2.6 | 7.0 | 0.00 | 0.71 | 0.00 | 89 | 1012.2 |
| 20260505015337 | 52 | 309 | 1.7 | 5.2 | 0.00 | 0.75 | 0.00 | 89 | 1012.2 |
| 20260505014328 | 52 | 39 | 3.5 | 9.6 | 0.00 | 0.75 | 0.00 | 89 | 1012.2 |